Simultaneous Nadir Overpasses (SNOs) Predictions

Prediction of SNOs between NOAA-19 and NPP Satellite Orbit:

Table of predicted SNOs for the next 14.0 days since TLE Epoch: 1/22/2017
Index Date (NOAA-19) Time (NOAA-19) Lat,Lon (NOAA-19) SZA (NOAA-19 ) Date (NPP) Time (NPP) Lat,Lon (NPP) SZA (NPP ) Distance(km) Time Diff (sec)
1 02/04/2017 05:25:56 80.91, 47.11 100.78 02/04/2017 05:27:11 80.91, 47.00 100.75 1.92 75
2 02/04/2017 06:16:59 -80.90,-145.81 79.22 02/04/2017 06:17:56 -80.91,-145.79 79.25 0.90 57
3 02/04/2017 07:07:58 80.91, 21.51 100.77 02/04/2017 07:08:41 80.91, 21.58 100.74 1.36 43
4 02/04/2017 07:59:00 -80.91,-171.05 79.27 02/04/2017 07:59:26 -80.91,-171.21 79.26 2.80 26
5 02/04/2017 08:49:59 80.91, -3.73 100.72 02/04/2017 08:50:11 80.91, -3.84 100.72 1.99 12
6 02/04/2017
